Regional Weather Roundup
Issued by NWS

Home | Current Version | Previous Version | Text Only | Print | Product List | Glossary On
Versions: 1 2 3 4 5 6 7 8 9 10 11 12 13 14 15 16 17 18 19 20 21 22 23 24 25 26 27 28 29 30 31 32 33 34 35 36 37 38 39 40 41 42 43 44 45 46 47 48 49 50
000
ASCA42 TJSJ 031110
RWRPR
PUERTO RICO/U.S. VIRGIN ISLANDS HOURLY WEATHER ROUNDUP
NATIONAL WEATHER SERVICE SAN JUAN PR
700 AM AST TUE MAY 03 2016

PRZ001-004-031200-
PUERTO RICO

CITY           SKY/WX    TMP DP  RH WIND       PRES   REMARKS
SAN JUAN LMM   MOSUNNY   75  73  94 CALM      30.03R
AGUADILLA      CLOUDY    72  68  88 SE5       30.03
CEIBA          CLOUDY    75  73  94 CALM      30.05R
$$

PRZ006-007-031200-
U.S. VIRGIN ISLANDS

CITY           SKY/WX    TMP DP  RH WIND       PRES   REMARKS
CHARLOTTE AMA  MOSUNNY   79  73  83 E7        30.02R
CHRISTIANSTED  MOSUNNY   75  72  88 NE5       30.03R
$$

HOURLY WEATHER ROUNDUP FOR THE NEWS MEDIA

CITY           SKY/WX    TMP DP  RH WIND       PRES   REMARKS
ORLANDO        CLEAR     74  70  87 S7        29.95R
NEW YORK       LGT RAIN  53  50  89 E8        29.88F FOG
NEWARK         LGT RAIN  54  53  97 NE6       29.87R
CHICAGO        PTCLDY    41  34  76 W3        29.96S
HARTFORD       LGT RAIN  47  46  97 E3        29.92F
BOSTON         LGT RAIN  46  45  93 E5        29.94S
DALLAS         PTCLDY    51  47  86 CALM      30.09R
PHILADELPHIA   LGT RAIN  57  53  86 NE9       29.82
LOS ANGELES    CLEAR     58  54  86 SW3       29.95F
WASHINGTON DC  LGT RAIN  63  61  93 N5        29.78F


USA.gov is the U.S. government's official web portal to all federal, state and local government web resources and services.